Location: Olsztyn
(53.7767°N, 20.4765°E)
Time: 20:33:10
(UTC+01:00)

Tiros 1 despin weight - All Passes

Search period start: 25 January 2022 00:00
Search period end: 04 February 2022 00:00
Orbit: 592 x 641 km, 48.2° (Epoch: 25 January)

Date Brightness Start Highest point End Pass type
(mag) Time Alt. Az. Time Alt. Az. Time Alt. Az.
25 Jan - 15:51:06 10° SSE 15:52:45 12° SE 15:54:24 10° ESE daylight
25 Jan - 17:29:15 10° SW 17:33:15 30° SSE 17:37:18 10° E visible
25 Jan - 19:09:52 10° WSW 19:14:13 42° S 19:18:38 10° ESE visible
25 Jan - 20:51:08 10° W 20:55:13 31° SSW 20:59:19 10° SE visible
25 Jan - 22:33:46 10° WSW 22:35:46 13° SW 22:37:46 10° SSW night (unlit)
26 Jan - 16:05:15 10° S 16:08:21 18° SSE 16:11:29 10° ESE daylight
26 Jan - 17:44:52 10° SW 17:49:05 37° SSE 17:53:21 10° E visible
26 Jan - 19:25:47 10° WSW 19:30:06 40° S 19:34:29 10° ESE visible
26 Jan - 21:07:17 10° W 21:10:59 23° SSW 21:14:41 10° SSE visible
27 Jan - 16:20:19 10° SSW 16:24:03 25° SSE 16:27:51 10° E daylight
27 Jan - 18:00:38 10° WSW 18:04:56 41° S 18:09:19 10° ESE visible
27 Jan - 19:41:46 10° W 19:45:58 35° SSW 19:50:13 10° SE visible
27 Jan - 21:23:46 10° WSW 21:26:40 16° SW 21:29:34 10° S visible
28 Jan - 14:56:54 10° S 14:59:15 14° SE 15:01:37 10° ESE daylight
28 Jan - 16:35:46 10° SW 16:39:50 33° SSE 16:43:58 10° E daylight
28 Jan - 18:16:30 10° WSW 18:20:50 42° S 18:25:13 10° ESE visible
28 Jan - 19:57:51 10° W 20:01:47 28° SSW 20:05:45 10° SE visible
28 Jan - 21:41:35 10° SW 21:42:15 10° SW 21:42:55 10° SSW night (unlit)
29 Jan - 15:11:31 10° SSW 15:14:53 21° SSE 15:18:17 10° ESE daylight
29 Jan - 16:51:26 10° WSW 16:55:41 39° S 16:59:59 10° ESE visible
29 Jan - 18:32:27 10° WSW 18:36:43 38° S 18:41:02 10° ESE visible
29 Jan - 20:14:06 10° WSW 20:17:31 20° SSW 20:20:57 10° SSE visible
30 Jan - 13:49:34 10° SSE 13:50:11 10° SE 13:50:47 10° SE daylight
30 Jan - 15:26:46 10° SW 15:30:37 28° SSE 15:34:32 10° E daylight
30 Jan - 17:07:15 10° WSW 17:11:33 42° S 17:15:55 10° ESE visible
30 Jan - 18:48:27 10° W 18:52:33 32° SSW 18:56:41 10° SE visible
30 Jan - 20:30:48 10° WSW 20:33:10 14° SW 20:35:31 10° S visible
31 Jan - 14:02:57 10° S 14:05:45 16° SE 14:08:35 10° ESE daylight
31 Jan - 15:42:18 10° SW 15:46:25 35° SSE 15:50:36 10° E daylight
31 Jan - 17:23:09 10° WSW 17:27:26 41° S 17:31:47 10° ESE visible
31 Jan - 19:04:35 10° W 19:08:20 25° SSW 19:12:07 10° SSE visible
01 Feb - 14:17:51 10° SSW 14:21:25 23° SSE 14:25:02 10° E daylight
01 Feb - 15:58:02 10° WSW 16:02:16 40° S 16:06:35 10° ESE daylight
01 Feb - 17:39:07 10° W 17:43:18 36° SSW 17:47:33 10° SE visible
01 Feb - 19:20:58 10° WSW 19:24:02 18° SSW 19:27:07 10° S visible
02 Feb - 12:54:47 10° SSE 12:56:39 12° SE 12:58:31 10° ESE daylight
02 Feb - 14:33:14 10° SW 14:37:11 31° SSE 14:41:11 10° E daylight
02 Feb - 16:13:52 10° WSW 16:18:09 42° S 16:22:29 10° ESE daylight
02 Feb - 17:55:09 10° W 17:59:07 29° SSW 18:03:07 10° SE visible
02 Feb - 19:38:09 10° WSW 19:39:38 11° SW 19:41:07 10° SSW visible
03 Feb - 13:09:08 10° SSW 13:12:15 19° SSE 13:15:26 10° ESE daylight
03 Feb - 14:48:51 10° SW 14:53:00 37° SSE 14:57:13 10° ESE daylight
03 Feb - 16:29:48 10° WSW 16:34:02 39° S 16:38:19 10° ESE daylight
03 Feb - 18:11:21 10° WSW 18:14:51 22° SSW 18:18:24 10° SSE visible
